Lexington Weather

Lexington, Massachusetts, USA

49°F
12/8/2022 2:27pm 
  • Lexington Conditions: Clear
  • Temperature: 49.3°F / 9.6°CColder 0.9°F than last hour.
  • Dew Point: 36.0°FIncreased 0.4°Fsince last hour.
  • Relative Humidity: 60%Increased 3.0% since last hour.
  • Wind: Wind from NNE NNE 3 mph, 10-min avg: 2 mph, gust: 8 mph
  • Barometer: 30.06 in Steady
  • Visibility: 10 miles
  • Rain Today: 0.00 in
  •   

Warning: Undefined variable $rc in /homepages/6/d276339138/htdocs/weather/20190804/ssi/nwsProduct.php on line 323

Warning: Undefined variable $rc in /homepages/6/d276339138/htdocs/weather/20190804/ssi/nwsProduct.php on line 325

Warning: Undefined variable $rc in /homepages/6/d276339138/htdocs/weather/20190804/ssi/nwsProduct.php on line 323

Warning: Undefined variable $rc in /homepages/6/d276339138/htdocs/weather/20190804/ssi/nwsProduct.php on line 325

Warning: Undefined variable $rc in /homepages/6/d276339138/htdocs/weather/20190804/ssi/nwsProduct.php on line 323

Warning: Undefined variable $rc in /homepages/6/d276339138/htdocs/weather/20190804/ssi/nwsProduct.php on line 325

Warning: Undefined variable $rc in /homepages/6/d276339138/htdocs/weather/20190804/ssi/nwsProduct.php on line 323

Warning: Undefined variable $rc in /homepages/6/d276339138/htdocs/weather/20190804/ssi/nwsProduct.php on line 325

Warning: Undefined variable $rc in /homepages/6/d276339138/htdocs/weather/20190804/ssi/nwsProduct.php on line 323

Warning: Undefined variable $rc in /homepages/6/d276339138/htdocs/weather/20190804/ssi/nwsProduct.php on line 325

Warning: Undefined variable $rc in /homepages/6/d276339138/htdocs/weather/20190804/ssi/nwsProduct.php on line 323

Warning: Undefined variable $rc in /homepages/6/d276339138/htdocs/weather/20190804/ssi/nwsProduct.php on line 325

Warning: Undefined variable $rc in /homepages/6/d276339138/htdocs/weather/20190804/ssi/nwsProduct.php on line 323

Warning: Undefined variable $rc in /homepages/6/d276339138/htdocs/weather/20190804/ssi/nwsProduct.php on line 325

Regional Weather Roundup
for Boston, MA

        
000
ASUS41 KBOX 041810
RWRBOX

REGIONAL WEATHER ROUNDUP
NATIONAL WEATHER SERVICE BOSTON/NORTON MA
100 PM EST SUN DEC 04 2022

NOTE:  "FAIR" INDICATES FEW OR NO CLOUDS BELOW 12,000 FEET WITH NO 
SIGNIFICANT WEATHER AND/OR OBSTRUCTIONS TO VISIBILITY.

MAZALL-041900-
EASTERN MASSACHUSETTS
  
CITY           SKY/WX    TMP DP  RH WIND       PRES   REMARKS
BOSTON         PTSUNNY   42  18  37 NW14      30.11F                  
6HR MIN TEMP:  37; 6HR MAX TEMP:  43;                                

BEVERLY        SUNNY     41  19  41 NW10      30.09F                  
LAWRENCE       SUNNY     41  19  41 W13       30.12F                  
BEDFORD        SUNNY     42  20  41 NW7       30.10F                  
NORWOOD        SUNNY     44  19  36 NW13      30.11S                  
MARSHFIELD       N/A     43  19  39 NW9G17    30.10F                  
PLYMOUTH       SUNNY     43  21  41 NW9       30.09F                  
TAUNTON          N/A    N/A N/A N/A MISG      30.10F                  
NEW BEDFORD    SUNNY     43  24  47 VRB5      30.10F                  
$$

MAZALL-041900-
CAPE COD AND THE ISLANDS
  
CITY           SKY/WX    TMP DP  RH WIND       PRES   REMARKS
FALMOUTH       SUNNY     43  19  39 NW12      30.10F                  
HYANNIS        SUNNY     41  23  48 N13G21    30.08F                  
CHATHAM        MOSUNNY   43  25  49 VRB7      30.11S                  
PROVINCETOWN   SUNNY     42  24  49 NW13G18   30.11F                  
NANTUCKET      SUNNY     45  24  43 N12       30.11F                  
MARTHAS VNYRD  SUNNY     45  24  43 N12       30.10F                  
$$
 
MAZALL-041900-
CENTRAL AND WESTERN MASSACHUSETTS
  
CITY           SKY/WX    TMP DP  RH WIND       PRES   REMARKS
WORCESTER      SUNNY     38  17  42 W9        30.07F WCI  31          
6HR MIN TEMP:  32; 6HR MAX TEMP:  39;                                

FITCHBURG      SUNNY     40  16  37 NW12      30.11F                  
ORANGE         CLOUDY    38  18  44 NW9       30.11F WCI  31          
SPRINGFIELD    PTSUNNY   41  18  40 W15       30.10F                  
WESTFIELD      MOSUNNY   39  19  44 N14       30.12F WCI  31          
NORTH ADAMS    CLOUDY    35  20  54 VRB6      30.13F WCI  30          
PITTSFIELD     CLOUDY    33  19  56 W9        30.09F WCI  25          
$$
 
RIZALL-041900-
RHODE ISLAND
  
CITY           SKY/WX    TMP DP  RH WIND       PRES   REMARKS
PROVIDENCE     PTSUNNY   42  22  44 NW8       30.11F                  
6HR MIN TEMP:  30; 6HR MAX TEMP:  43;                                

NEWPORT        SUNNY     42  23  46 N9G18     30.09F                  
BLOCK ISLAND   SUNNY     42  23  46 CALM      30.12F                  
SMITHFIELD     SUNNY     40  21  46 N6        30.09F                  
WESTERLY       SUNNY     44  21  40 N6        30.11F                  
$$
 
CTZALL-041900-
CONNECTICUT
  
CITY           SKY/WX    TMP DP  RH WIND       PRES   REMARKS
BRADLEY INTL   PTSUNNY   41  20  43 NW10      30.13F                  
6HR MIN TEMP:  37; 6HR MAX TEMP:  42;                                

HARTFORD       MOSUNNY   42  21  43 N12       30.14F                  
BRIDGEPORT     SUNNY     45  20  36 N8G18     30.14F                  
DANBURY        MOSUNNY   43  18  36 VRB5      30.14F                  
GROTON         SUNNY     47  23  38 NW10      30.12F                  
NEW HAVEN      SUNNY     46  23  40 NW8       30.13F                  
CHESTER        FAIR      43  19  39 NW7G17    30.12                   
MERIDEN        MOSUNNY   42  21  43 N13       30.14S                  
WILLIMANTIC    SUNNY     41  22  46 NW8       30.12F                  
OXFORD         MOSUNNY   39  21  48 N6        30.12F                  
$$

MEZ002-015-021-024-NHZ003-005-008-011-012-014-VTZ005-008-041900-
NORTHERN NEW ENGLAND
  
CITY           SKY/WX    TMP DP  RH WIND       PRES   REMARKS
PORTLAND ME    MOSUNNY   39  15  37 NW13      30.09F WCI  31          
6HR MIN TEMP:  31; 6HR MAX TEMP:  40;                                

BANGOR ME      MOSUNNY   36  15  42 NW12      30.05S WCI  28          
CONCORD NH     MOSUNNY   39  16  39 NW9       30.12R                  
MANCHESTER NH  PTSUNNY   42  17  36 NW13      30.09F                  
NASHUA NH      MOSUNNY   40  16  37 W14       30.12F                  
PORTSMOUTH NH  MOSUNNY   39  17  41 NW13      30.11F WCI  31          
JAFFREY NH     MOSUNNY   38  16  40 W8G17     30.08F                  
KEENE NH       MOSUNNY   39  16  39 NW8         N/A                   
BURLINGTON VT  CLOUDY    32  14  47 SE6       30.13F WCI  26          
MT. WASHINGTON SNOWSHWR   5   5 100 W44G49      N/A  VSB 1/8 WCI -23  
$$

NYZ052-076-041900-
EASTERN NEW YORK
  
CITY           SKY/WX    TMP DP  RH WIND       PRES   REMARKS
ALBANY         PTSUNNY   38  23  55 W8        30.16F                  
6HR MIN TEMP:  35; 6HR MAX TEMP:  38;                                

NEW YORK CITY  MOSUNNY   44  19  36 NW13      30.15F                  
6HR MIN TEMP:  39; 6HR MAX TEMP:  44;                                

$$
 
ANZALL-041900-
MARINE OBSERVATIONS
  
STATION/POSITION TIME  TEMP    WIND        PRES    VSBY  WAVE
                       AIR SEA DIR/SP/G                  HT/PER
                 (UTC) (F)     (DEG/KT/KT) (MB)    (MI)  (FT/S)
BOSTON BUOY      1750      51  320/ 10/ 14 1019.9F
BUZZARDS BAY     1700   40     330/ 12/ 13 1020.3F
NANTUCKET SOUND  1800   42     360/  8/ 10 1019.5
MASS BAY-STELLWA 1604   40 50  310/ 10/ 14 1019.5F  1 7/8  2/ 3
ISLE OF SHOALS   1700   38     310/ 16/ 19 1019.2F
S OF BLOCK IS    1756      54                N/A           5/ 8
$$

......................KEY.........................
  SKY/WX - SKY CONDITION/PRESENT WEATHER
  TMP    - TEMPERATURE IN FAHRENHEIT
  DWPT   - DEWPOINT IN FAHRENHEIT
  RH     - RELATIVE HUMIDITY IN PERCENT
  WIND   - DIRECTION AND SPEED IN MPH
  PRES   - MEAN SEA LEVEL PRESSURE IN INCHES OF HG
  WCI    - WIND CHILL INDEX
  VSB    - VISIBILITY IN MILES
  HX     - HEAT INDEX
  TC     - TEMPERATURE IN CELSIUS
  VRB    - VARIABLE WIND DIRECTION
  N/A    - NOT AVAILABLE
  
      

Other recent Regional Weather Roundups

Thu Dec 8, 2:10pm

Thu Dec 8, 1:10pm

Thu Dec 8, 12:10pm

Thu Dec 8, 11:10am

Thu Dec 8, 10:10am

Thu Dec 8, 9:10am

Thu Dec 8, 8:10am

Thu Dec 8, 7:10am

Thu Dec 8, 6:10am

Thu Dec 8, 5:10am

Thu Dec 8, 4:10am

Thu Dec 8, 3:10am

Thu Dec 8, 2:10am

Thu Dec 8, 1:10am

Thu Dec 8, 12:10am

Wed Dec 7, 11:10pm

Wed Dec 7, 10:10pm

Wed Dec 7, 9:10pm

Wed Dec 7, 8:10pm

Wed Dec 7, 7:10pm

Wed Dec 7, 6:10pm

Wed Dec 7, 5:10pm

Wed Dec 7, 4:10pm

Wed Dec 7, 3:10pm

Wed Dec 7, 2:10pm

Wed Dec 7, 1:10pm

Wed Dec 7, 12:10pm

Wed Dec 7, 11:10am

Wed Dec 7, 10:10am

Wed Dec 7, 9:10am

Wed Dec 7, 8:10am

Wed Dec 7, 7:10am

Wed Dec 7, 6:10am

Wed Dec 7, 5:10am

Wed Dec 7, 4:10am

Wed Dec 7, 3:10am

Wed Dec 7, 2:10am

Wed Dec 7, 1:10am

Wed Dec 7, 12:10am

Tue Dec 6, 11:10pm

Tue Dec 6, 10:10pm

Tue Dec 6, 9:10pm

Tue Dec 6, 8:10pm

Tue Dec 6, 7:10pm

Tue Dec 6, 6:10pm

Tue Dec 6, 5:10pm

Tue Dec 6, 4:10pm

Tue Dec 6, 3:10pm

Tue Dec 6, 2:10pm

Tue Dec 6, 1:10pm

Tue Dec 6, 12:10pm

Tue Dec 6, 11:10am

Tue Dec 6, 10:10am

Tue Dec 6, 9:10am

Tue Dec 6, 8:10am

Tue Dec 6, 7:10am

Tue Dec 6, 6:10am

Tue Dec 6, 5:10am

Tue Dec 6, 4:10am

Tue Dec 6, 3:10am

Tue Dec 6, 2:10am

Tue Dec 6, 1:10am

Tue Dec 6, 12:10am

Mon Dec 5, 11:10pm

Mon Dec 5, 10:10pm

Mon Dec 5, 9:10pm

Mon Dec 5, 8:10pm

Mon Dec 5, 7:10pm

Mon Dec 5, 6:10pm

Mon Dec 5, 5:10pm

Mon Dec 5, 4:10pm

Mon Dec 5, 3:10pm

Mon Dec 5, 2:10pm

Mon Dec 5, 1:10pm

Mon Dec 5, 12:10pm

Mon Dec 5, 11:10am

Mon Dec 5, 10:10am

Mon Dec 5, 9:10am

Mon Dec 5, 8:10am

Mon Dec 5, 7:10am

Mon Dec 5, 6:10am

Mon Dec 5, 5:10am

Mon Dec 5, 4:10am

Mon Dec 5, 3:10am

Mon Dec 5, 2:10am

Mon Dec 5, 1:10am

Mon Dec 5, 12:10am

Sun Dec 4, 11:10pm

Sun Dec 4, 10:10pm

Sun Dec 4, 9:10pm

Sun Dec 4, 8:10pm

Sun Dec 4, 7:10pm

Sun Dec 4, 6:10pm

Sun Dec 4, 5:10pm

Sun Dec 4, 4:10pm

Sun Dec 4, 3:10pm

Sun Dec 4, 2:10pm

Sun Dec 4, 12:10pm

Sun Dec 4, 11:10am

Sun Dec 4, 10:10am

Sun Dec 4, 9:10am

Sun Dec 4, 8:10am

Sun Dec 4, 7:10am

Sun Dec 4, 6:10am

Sun Dec 4, 5:10am

Sun Dec 4, 4:10am

Sun Dec 4, 3:10am

Sun Dec 4, 2:10am

Sun Dec 4, 1:10am

Sun Dec 4, 12:10am

Sat Dec 3, 11:10pm

Sat Dec 3, 10:10pm

Sat Dec 3, 9:10pm

Sat Dec 3, 8:10pm

Sat Dec 3, 7:10pm

Sat Dec 3, 6:10pm

Sat Dec 3, 5:10pm

Sat Dec 3, 4:10pm

Sat Dec 3, 3:10pm

Sat Dec 3, 2:10pm

Sat Dec 3, 1:10pm

Sat Dec 3, 12:10pm

Sat Dec 3, 11:10am

Sat Dec 3, 10:10am

Sat Dec 3, 9:10am

Sat Dec 3, 8:10am

Sat Dec 3, 7:10am

Sat Dec 3, 6:10am

Sat Dec 3, 5:10am

Sat Dec 3, 4:10am

Sat Dec 3, 3:10am

Sat Dec 3, 2:10am

Sat Dec 3, 1:10am

Sat Dec 3, 12:10am

Fri Dec 2, 11:10pm

Fri Dec 2, 10:10pm

Fri Dec 2, 9:10pm

Fri Dec 2, 8:10pm

Fri Dec 2, 7:10pm

Fri Dec 2, 6:10pm

Fri Dec 2, 5:10pm

Fri Dec 2, 4:10pm

Fri Dec 2, 3:10pm

Fri Dec 2, 2:10pm

Fri Dec 2, 1:10pm

Fri Dec 2, 12:10pm

Fri Dec 2, 11:10am

Fri Dec 2, 10:10am

Fri Dec 2, 9:10am

Fri Dec 2, 8:10am

Fri Dec 2, 7:10am

Fri Dec 2, 6:10am

Fri Dec 2, 5:10am

Fri Dec 2, 4:10am

Fri Dec 2, 3:10am

Fri Dec 2, 2:10am

Fri Dec 2, 1:10am

Fri Dec 2, 12:10am

Thu Dec 1, 11:10pm

Thu Dec 1, 10:10pm

Thu Dec 1, 9:10pm

Thu Dec 1, 8:10pm

Thu Dec 1, 7:10pm

Thu Dec 1, 6:10pm

Thu Dec 1, 5:10pm

Thu Dec 1, 4:10pm

Thu Dec 1, 3:10pm

Meta data:

ID: 9b92b17a-dc41-4556-a2dc-f39705156c0b
Link: https://api.weather.gov/products/9b92b17a-dc41-4556-a2dc-f39705156c0b